Back to catalog

CZ-6A DEB

AlivePO
NORAD 68407·DEBRIS·🇨🇳 China

Launched Nov 11, 2022 from Taiyuan Satellite Launch Center

Loading…

Next Passes (next 24 hours)

TLE

FreshSource: Space-Track

Epoch: Sep 14, 2026, 05:22 UTC

1 68407U 22151AJJ 26257.22396583  .00006585  00000-0  99712-3 0  9991
2 68407  98.7969 357.5499 0085383  33.7272 326.9325 14.72094524178125

Track CZ-6A DEB in real time with AllMySat

Download on the App Store